Location: Street
(51.1247°N, 2.7429°W)
Time: 16:29:05
(UTC+00:00)

SR - Pass Details

Date: 30 November 2020
Orbit: 575 x 880 km, 66.7° (Epoch: 26 January)

Event Time Altitude Azimuth Distance (km) Brightness Sun altitude
Rises 18:42:44 0° 217° (SW) 2,818 ? -23.4°
Reaches altitude 10° 18:44:53 10° 217° (SW) 1,946 ? -23.8°
Maximum altitude 18:49:16 87° 307° (NW) 641 ? -24.4°
Enters shadow 18:49:20 86° 355° (N) 642 ? -24.4°
Drops below altitude 10° 18:54:02 10° 38° (NE) 2,114 - -25.2°
Sets 18:56:27 0° 38° (NE) 3,084 - -25.6°
